Tracking 22454 objects as of 5-Mar-2021
HD Live streaming from Space Station
objects crossing your sky now

H-1 R/B(1)


H-1 R/B(1) is no longer on orbit


NORAD ID: 20230
Int'l Code: 1989-070B
Perigee: N/A
Apogee: N/A
Inclination: N/A
Period: N/A
Semi major axis: N/A
RCS: N/A
Launch date: September 5, 1989
Source: Japan (JPN)
Launch site: TANEGASHIMA SPACE CENTER (TNSTA)
Decay date: 2019-04-05

Note: This is a ROCKET BODY
aabbcc
Your satellite tracking list
Your tracking list is empty




NASA's NSSDC Master Catalog

Two Line Element Set (TLE):
1 20230U 89070B   19095.21060626  .07318031 -85693-5  40692-3 0  9992
2 20230  27.9656 260.2130 0114522 182.4625 356.8606 16.21527234591698
Source of the keplerian elements: AFSPC